Regional Weather Roundup
Issued by NWS

Home | Current Version | Previous Version | Text Only | Print | Product List | Glossary Off
Versions: 1 2 3 4 5 6 7 8 9 10 11 12 13 14 15 16 17 18 19 20 21 22 23 24 25 26 27 28 29 30 31 32 33 34 35 36 37 38 39 40 41 42 43 44 45 46 47 48 49 50

000
ASUS43 KDTX 241310
RWRMI
MICHIGAN HOURLY REGIONAL WEATHER ROUNDUP
NATIONAL WEATHER SERVICE DETROIT/PONTIAC MI
900 AM EDT SUN SEP 24 2017

NOTE: "FAIR" INDICATES FEW OR NO CLOUDS BELOW 12,000 FEET WITH NO
SIGNIFICANT WEATHER AND/OR OBSTRUCTION TO VISIBILITY.

MIZ047>049-052>055-059>063-066>070-074>076-081>083-241400-
SOUTHEAST LOWER MICHIGAN

CITY           SKY/WX    TMP DP  RH WIND       PRES   REMARKS
ADRIAN         SUNNY     68  61  78 CALM      30.18R
ALMA           SUNNY     65  61  86 S3        30.16S
ANN ARBOR      SUNNY     70  63  78 CALM      30.17R
BAD AXE        SUNNY     68  66  93 CALM      30.18R
CARO           SUNNY     67  63  89 CALM      30.16S
DETROIT CITY   SUNNY     72  67  84 CALM      30.18R
DETROIT        MOSUNNY   72  63  73 CALM      30.18R
FLINT          SUNNY     70  62  76 CALM      30.16S
GROSSE ILE     SUNNY     72  63  73 CALM      30.17R
HILLSDALE      MOSUNNY   68  61  77 CALM      30.17S
HOWELL         SUNNY     69  62  78 CALM      30.17S

CITY           SKY/WX    TMP DP  RH WIND       PRES   REMARKS
JACKSON        SUNNY     71  60  68 SE3       30.16S
LAMBERTVILLE   SUNNY     70  67  91 CALM      30.16S
LANSING        SUNNY     69  60  73 CALM      30.16S
LAPEER         FAIR      66  64  90 CALM      30.18S
MASON          SUNNY     70  60  69 SE5       30.16S
MONROE         SUNNY     71  66  84 CALM      30.16S
MT. CLEMENS    MOSUNNY   73  73 100 CALM      30.16R
PONTIAC        MOSUNNY   70  65  84 CALM      30.17S
PORT HOPE        N/A     73  64  73 CALM      30.15S
PORT HURON     SUNNY     68  66  94 CALM      30.17S
TRI CITIES     SUNNY     71  63  75 CALM      30.16S
MIDLAND        FAIR      65  63  95 CALM      30.14S
TROY           SUNNY     71  63  76 CALM      30.19S
SAGINAW HB     SUNNY     66  61  82 CALM      30.15S
$$
MIZ043>046-050>051-056>058-064>065-071>073-077>080-241400-
SOUTHWEST LOWER MICHIGAN

CITY           SKY/WX    TMP DP  RH WIND       PRES   REMARKS
BATTLE CREEK   SUNNY     70  62  76 CALM      30.16S
BENTON HARBOR  SUNNY     71  62  73 SE6       30.11S
BIG RAPIDS     SUNNY     62  60  91 CALM      30.15S FOG
COLDWATER      SUNNY     68  62  82 CALM      30.16S
FREMONT        FAIR      69  63  81 CALM      30.12F
HOLLAND        SUNNY     71  61  70 SE5       30.12F
GRAND RAPIDS   SUNNY     70  61  73 SE5       30.13F
IONIA          FAIR      66  60  81 CALM      30.14S
KALAMAZOO      SUNNY     70  62  76 CALM      30.15S
LUDINGTON      SUNNY     68  64  85 CALM      30.10F
MARSHALL       SUNNY     67  60  79 CALM      30.15S
MUSKEGON       SUNNY     72  63  73 SE7       30.11F
SOUTH HAVEN    SUNNY     71  62  74 CALM      30.12S
$$
MIZ016>042-241400-
NORTHERN LOWER MICHIGAN

CITY           SKY/WX    TMP DP  RH WIND       PRES   REMARKS
ALPENA         SUNNY     72  66  81 SW3       30.14S
BELLAIRE       SUNNY     65  64  96 CALM      30.13R FOG
CADILLAC       SUNNY     68  62  80 CALM      30.14F
CHARLEVOIX     SUNNY     70  67  89 SE5       30.14S
FRANKFORT      SUNNY     72  68  88 CALM      30.11S
GAYLORD        SUNNY     67  63  87 CALM      30.16S
GRAYLING       SUNNY     63  58  85 CALM      30.16S
HARBOR SPRINGS SUNNY     71  66  84 CALM      30.11S
HOUGHTON LAKE  SUNNY     67  62  84 CALM      30.17S
OSCODA         SUNNY     71  62  73 CALM      30.14S
PELLSTON       SUNNY     64  62  93 CALM      30.12S
ROGERS CITY    SUNNY     74  66  76 SW5       30.13S
TRAVERSE CITY  MOSUNNY   71  64  78 CALM      30.10S
$$
MIZ007>008-015-241400-
EASTERN UPPER MICHIGAN

CITY           SKY/WX    TMP DP  RH WIND       PRES   REMARKS
KINROSS        SUNNY     69  65  86 CALM      30.12S
MACKINAC ISLAN SUNNY     72  65  79 S7        30.11S
NEWBERRY       SUNNY     70  69  97 S8        30.09S
S. S. MARIE    SUNNY     68  64  87 CALM      30.10S
MUNISING         N/A     72  68  87 S9        30.05S
$$
MIZ004>006-011>014-085-241400-
CENTRAL UPPER MICHIGAN

CITY           SKY/WX    TMP DP  RH WIND       PRES   REMARKS
MANISTIQUE     SUNNY     68  62  80 SE5       30.08S HAZE
ESCANABA       SUNNY     64  63  96 CALM      30.07S FOG
MENOMINEE      SUNNY     68  65  90 CALM      30.07F
SAWYER-GWINN   SUNNY     64  64 100 S5        30.08S FOG
$$
MIZ001>003-009>011-084-241400-
WESTERN UPPER MICHIGAN

CITY           SKY/WX    TMP DP  RH WIND       PRES   REMARKS
IRON MOUNTAIN  SUNNY     69  64  84 CALM      30.06F HAZE
HOUGHTON       SUNNY     70  64  81 CALM      30.01S
COPPER HARBOR    N/A     74  65  73 W9        29.98S
IRONWOOD       SUNNY     72  63  73 S10       30.01S
$$

ABBREVIATIONS USED IN REMARKS
   TC - TEMPERATURE IN CELSIUS
  WCI - WIND CHILL INDEX
   HX - HEAT INDEX
  VSB - VISIBILITY





USA.gov is the U.S. government's official web portal to all federal, state and local government web resources and services.